Date,TemperatureHighF,TemperatureAvgF,TemperatureLowF,DewpointHighF,DewpointAvgF,DewpointLowF,HumidityHigh,HumidityAvg,HumidityLow,PressureMaxIn,PressureMinIn,WindSpeedMaxMPH,WindSpeedAvgMPH,GustSpeedMaxMPH,PrecipitationSumIn
2013-2-1,41,35,28,24,19,14,69,51,34,30.19,29.97,12,0,12,0.00
2013-2-2,46,40,35,22,19,14,58,43,28,30.27,29.95,10,0,10,0.00
2013-2-3,42,39,36,20,17,14,50,41,34,29.96,29.80,13,0,13,0.00
2013-2-4,39,36,28,20,18,14,68,48,36,29.89,29.69,18,0,18,0.00
2013-2-5,42,34,27,23,20,15,76,58,38,29.89,29.60,5,0,5,0.00
2013-2-6,39,32,26,22,16,10,74,53,31,29.99,29.65,4,0,4,0.00
2013-2-7,40,30,20,18,15,11,72,55,39,30.02,29.87,2,0,2,0.00
2013-2-8,37,29,22,16,13,8,72,53,31,30.09,29.96,9,0,9,0.00
2013-2-9,31,22,18,24,15,9,85,73,58,30.30,30.03,0,0,0,0.00
2013-2-10,35,20,10,16,12,6,86,73,34,30.43,30.19,0,0,0,0.00
2013-2-11,42,28,16,18,12,8,73,52,29,30.20,29.94,0,0,3,0.00
2013-2-12,41,34,26,23,18,13,65,51,38,30.03,29.73,0,0,12,0.00
2013-2-13,39,30,23,23,11,2,73,47,24,30.28,29.75,2,0,17,0.00
2013-2-14,35,28,15,12,10,4,68,47,28,30.48,30.28,5,0,5,0.00
2013-2-15,43,33,20,25,19,10,69,55,46,30.44,30.12,11,0,11,0.00
2013-2-16,45,36,27,27,21,14,73,55,38,30.12,29.70,9,0,9,0.00
2013-2-17,33,28,21,27,24,18,92,87,61,30.14,29.71,1,0,1,0.00
2013-2-18,33,20,10,20,14,6,90,79,56,30.20,29.97,2,0,2,0.01
2013-2-19,30,23,13,23,18,8,86,80,59,29.98,29.86,4,0,4,0.04
2013-2-20,32,22,12,17,12,4,87,68,32,30.01,29.87,6,0,6,0.03
2013-2-21,33,22,10,11,6,1,69,53,33,30.03,29.85,5,0,5,0.00
2013-2-22,38,29,21,21,14,10,71,53,36,29.85,29.45,16,0,16,0.01
2013-2-23,38,29,21,20,12,4,78,52,28,30.07,29.44,6,0,6,0.00
2013-2-24,39,31,23,18,11,4,59,43,32,30.07,29.89,12,0,12,0.00
2013-2-25,37,31,25,21,15,8,80,52,34,29.98,29.69,10,0,10,0.00
2013-2-26,38,27,17,20,14,7,85,62,30,30.23,29.97,5,0,5,0.00
2013-2-27,29,26,23,15,13,10,65,58,46,30.14,30.10,0,0,0,0.00
2013-2-28,40,34,26,20,14,9,56,44,29,30.26,30.09,1,0,7,0.00